This is the latest recevied weather packets stored in our database for station/object ANJALA. If no packets are shown the sender has not sent any weather packets the latest 10 day(s).
| Time | Temp. | Humidity | Pressure | Rain* | Wind** | Luminosity | Snow |
|---|---|---|---|---|---|---|---|
| 1777870028 | 10.56° C | 74% | - | 0 mm | - | - | - |
| 1777868828 | 10.56° C | 71% | - | 0 mm | - | - | - |
| 1777867628 | 9.44° C | 81% | - | 0 mm | - | - | - |
| 1777866428 | 8.89° C | 85% | - | 0 mm | - | - | - |
| 1777865228 | 8.33° C | 85% | - | 0 mm | - | - | - |
| 1777864028 | 8.89° C | 85% | - | 0 mm | - | - | - |
| 1777862828 | 8.89° C | 84% | - | 0 mm | - | - | - |
| 1777844827 | 9.44° C | 83% | - | 0 mm | - | - | - |
| 1777843627 | 10° C | 79% | - | 0 mm | - | - | - |
| 1777842427 | 10° C | 80% | - | 0 mm | - | - | - |
| 1777841227 | 10.56° C | 78% | - | 0 mm | - | - | - |
| 1777840027 | 11.11° C | 75% | - | 0 mm | - | - | - |
| 1777826826 | 15° C | 52% | - | 0 mm | - | - | - |
| 1777825626 | 15° C | 52% | - | 0 mm | - | - | - |
| 1777824426 | 15.56° C | 51% | - | 0 mm | - | - | - |
| 1777823226 | 15° C | 53% | - | 0 mm | - | - | - |
| 1777822025 | 16.11° C | 50% | - | 0 mm | - | - | - |
| 1777820826 | 15.56° C | 50% | - | 0 mm | - | - | - |
| 1777811225 | 15.56° C | 54% | - | 0 mm | - | - | - |
| 1777807625 | 16.11° C | 52% | - | 0 mm | - | - | - |
| 1777806425 | 15° C | 54% | - | 0 mm | - | - | - |
| 1777805230 | 15° C | 54% | - | 0 mm | - | - | - |
| 1777804025 | 14.44° C | 54% | - | 0 mm | - | - | - |
| 1777802825 | 14.44° C | 55% | - | 0 mm | - | - | - |
| 1777801625 | 13.89° C | 56% | - | 0 mm | - | - | - |
* Rain latest hour (hover to see other rain measurements)
** Current wind speed in m/s (hover to see current wind gust speed)